Tacoma, WA

4:59 AM PST on January 22, 2018 (GMT -0800)
McChord Air Force Base

Weather History for KTCM - April, 2012

Change the Weather History Date:

Wednesday, April 11, 2012

  Actual Average Record
Temperature  
Mean Temperature 48 °F -  
Max Temperature 51 °F 55 °F 80 °F (2004)
Min Temperature 46 °F 36 °F 28 °F (1965)
Degree Days  
Heating Degree Days 16    
Moisture  
Dew Point 47 °F    
Average Humidity 91    
Maximum Humidity 100    
Minimum Humidity 76    
Precipitation  
Precipitation 0.23 in - - ()
Sea Level Pressure  
Sea Level Pressure 29.72 in    
Wind  
Wind Speed 6 mph (SSW)    
Max Wind Speed 12 mph    
Max Gust Speed -    
Visibility 10 miles    
Events Rain    
Averages and records for this station are not official NWS values.
T = Trace of Precipitation, MM = Missing Value Source: NWS Daily Summary

Daily Weather History Graph

Daily Weather History Graph

Search for Another Location

Airport or City:

Trip Planner

Search our weather history database for the weather conditions in past years. The results will help you decide how hot, cold, wet, or windy it might be!

Date:

Astronomy

Apr. 11, 2012 Rise Set
Actual Time 6:28 AM PDT 7:54 PM PDT
Civil Twilight 5:56 AM PDT 8:25 PM PDT
Nautical Twilight 5:18 AM PDT 9:04 PM PDT
Astronomical Twilight 4:37 AM PDT 9:45 PM PDT
Moon 1:09 AM PDT (4/11) 10:07 AM PDT (4/11)
Length of Visible Light 14h 29m
Length of Day
13h 25m
Waning Gibbous, 68% of the Moon is Illuminated
Apr 11
Waning Gibbous
Apr 13
Last Quarter
Apr 21
New
Apr 29
First Quarter
May 5
Full

Hourly Weather History & Observations

Time (PDT) Temp. Windchill Dew Point Humidity Pressure Visibility Wind Dir Wind Speed Gust Speed Precip Events Conditions
12:55 AM 51.3 °F - 44.8 °F 78% 29.80 in 10.0 mi WSW 3.5 mph - N/A   Overcast
12:59 AM 51.8 °F - 44.6 °F 76% 29.79 in 10.0 mi Calm Calm - N/A   Overcast
1:25 AM 51.8 °F - 44.6 °F 76% 29.79 in 10.0 mi WNW 8.1 mph - N/A   Overcast
1:27 AM 51.8 °F - 44.6 °F 76% 29.79 in 10.0 mi WNW 8.1 mph - N/A Rain Light Rain
1:34 AM 51.8 °F - 44.6 °F 76% 29.78 in 10.0 mi WNW 6.9 mph - N/A Rain Light Rain
1:55 AM 50.5 °F - 45.9 °F 84% 29.79 in 10.0 mi WNW 5.8 mph - 0.00 in   Overcast
1:57 AM 50.0 °F - 46.4 °F 87% 29.79 in 10.0 mi Variable 5.8 mph - N/A Rain Light Rain
2:20 AM 50.0 °F - 46.4 °F 87% 29.77 in 10.0 mi West 8.1 mph - N/A   Overcast
2:55 AM 49.5 °F - 45.9 °F 87% 29.76 in 10.0 mi WSW 4.6 mph - 0.00 in   Overcast
3:25 AM 50.0 °F - 46.4 °F 87% 29.76 in 10.0 mi West 3.5 mph - N/A   Overcast
3:55 AM 49.3 °F - 45.9 °F 88% 29.75 in 10.0 mi Calm Calm - N/A   Overcast
4:12 AM 50.0 °F - 46.4 °F 87% 29.75 in 10.0 mi West 4.6 mph - N/A   Overcast
4:27 AM 50.0 °F - 44.6 °F 82% 29.75 in 10.0 mi West 3.5 mph - N/A   Overcast
4:47 AM 50.0 °F - 44.6 °F 82% 29.74 in 10.0 mi West 4.6 mph - N/A   Overcast
4:51 AM 50.0 °F - 44.6 °F 82% 29.74 in 10.0 mi WSW 4.6 mph - N/A   Overcast
4:55 AM 49.1 °F - 45.1 °F 86% 29.74 in 10.0 mi WSW 3.5 mph - N/A   Overcast
5:19 AM 48.2 °F - 44.6 °F 87% 29.74 in 10.0 mi Calm Calm - N/A   Overcast
5:55 AM 48.7 °F - 45.3 °F 88% 29.73 in 10.0 mi SE 3.5 mph - N/A   Overcast
6:12 AM 48.2 °F - 46.4 °F 93% 29.73 in 10.0 mi SE 3.5 mph - N/A   Overcast
6:46 AM 48.2 °F - 46.4 °F 93% 29.72 in 10.0 mi Calm Calm - N/A   Light Drizzle
6:55 AM 48.6 °F - 45.3 °F 89% 29.72 in 10.0 mi SW 4.6 mph - 0.00 in   Overcast
7:18 AM 48.2 °F - 46.4 °F 93% 29.72 in 10.0 mi West 6.9 mph - N/A   Light Drizzle
7:55 AM 47.5 °F - 45.9 °F 94% 29.72 in 10.0 mi WNW 5.8 mph - 0.00 in Rain Light Rain
8:06 AM 48.2 °F - 46.4 °F 93% 29.72 in 9.0 mi West 5.8 mph - N/A Rain Light Rain
8:17 AM 48.2 °F - 46.4 °F 93% 29.72 in 7.0 mi WNW 4.6 mph - N/A Rain Light Rain
8:40 AM 46.4 °F 44.3 °F 46.4 °F 100% 29.72 in 4.0 mi NW 4.6 mph - N/A Rain Rain
8:50 AM 46.4 °F 45.2 °F 46.4 °F 100% 29.72 in 4.0 mi WNW 3.5 mph - N/A Rain Rain
8:55 AM 47.3 °F - 46.4 °F 97% 29.72 in 4.0 mi Calm Calm - 0.05 in Rain Rain
9:20 AM 48.2 °F - 46.4 °F 93% 29.70 in 7.0 mi WNW 4.6 mph - N/A Rain Light Rain
9:28 AM 48.2 °F - 46.4 °F 93% 29.70 in 10.0 mi WNW 5.8 mph - N/A Rain Light Rain
9:33 AM 48.2 °F - 48.2 °F 100% 29.70 in 10.0 mi WNW 4.6 mph - N/A Rain Light Rain
9:48 AM 48.2 °F - 46.4 °F 93% 29.70 in 10.0 mi West 4.6 mph - N/A Rain Light Rain
9:55 AM 48.0 °F - 46.8 °F 95% 29.70 in 10.0 mi West 5.8 mph - 0.03 in Rain Light Rain
10:55 AM 48.6 °F - 47.5 °F 96% 29.70 in 10.0 mi Calm Calm - 0.02 in Rain Light Rain
11:21 AM 48.2 °F - 46.4 °F 93% 29.70 in 7.0 mi West 3.5 mph - N/A Rain Light Rain
11:22 AM 48.2 °F - 46.4 °F 93% 29.70 in 7.0 mi West 3.5 mph - N/A Rain Light Rain
11:24 AM 48.2 °F - 48.2 °F 100% 29.70 in 7.0 mi WNW 4.6 mph - N/A Rain Light Rain
11:26 AM 50.0 °F - 48.2 °F 94% 29.70 in 8.0 mi Variable 3.5 mph - N/A Rain Light Rain
11:55 AM 49.8 °F - 48.4 °F 95% 29.70 in 9.0 mi West 3.5 mph - 0.04 in Rain Light Rain
11:57 AM 50.0 °F - 48.2 °F 94% 29.70 in 9.0 mi WNW 3.5 mph - N/A Rain Light Rain
12:02 PM 50.0 °F - 50.0 °F 100% 29.70 in 10.0 mi West 3.5 mph - N/A Rain Light Rain
12:21 PM 50.0 °F - 50.0 °F 100% 29.69 in 10.0 mi SW 6.9 mph - N/A Rain Light Rain
12:36 PM 50.0 °F - 48.2 °F 94% 29.69 in 10.0 mi SW 8.1 mph - N/A Rain Light Rain
12:55 PM 51.3 °F - 49.5 °F 94% 29.69 in 10.0 mi SW 9.2 mph - 0.01 in Rain Light Rain
1:14 PM 51.8 °F - 50.0 °F 94% 29.69 in 10.0 mi SSW 8.1 mph - N/A Rain Light Rain
1:17 PM 51.8 °F - 48.2 °F 88% 29.69 in 10.0 mi SSW 9.2 mph - N/A Rain Light Rain
1:27 PM 51.8 °F - 48.2 °F 88% 29.69 in 10.0 mi SSW 10.4 mph - N/A Rain Light Rain
1:31 PM 51.8 °F - 48.2 °F 88% 29.69 in 10.0 mi SSW 8.1 mph - N/A Rain Light Rain
1:51 PM 51.8 °F - 48.2 °F 88% 29.69 in 10.0 mi SSW 9.2 mph - N/A Rain Light Rain
1:55 PM 51.3 °F - 48.6 °F 90% 29.69 in 10.0 mi SSW 9.2 mph - 0.01 in Rain Light Rain
1:59 PM 51.8 °F - 48.2 °F 88% 29.69 in 10.0 mi SSW 10.4 mph - N/A Rain Light Rain
2:03 PM 51.8 °F - 48.2 °F 88% 29.69 in 10.0 mi South 10.4 mph - N/A Rain Light Rain
2:11 PM 51.8 °F - 50.0 °F 94% 29.70 in 10.0 mi South 10.4 mph - N/A Rain Light Rain
2:14 PM 51.8 °F - 50.0 °F 94% 29.70 in 10.0 mi South 10.4 mph - N/A Rain Light Rain
2:24 PM 51.8 °F - 48.2 °F 88% 29.70 in 10.0 mi South 10.4 mph - N/A Rain Light Rain
2:31 PM 51.8 °F - 48.2 °F 88% 29.70 in 10.0 mi South 9.2 mph - N/A Rain Light Rain
2:33 PM 51.8 °F - 48.2 °F 88% 29.70 in 10.0 mi South 11.5 mph - N/A Rain Light Rain
2:35 PM 51.8 °F - 48.2 °F 88% 29.70 in 10.0 mi South 11.5 mph - N/A Rain Light Rain
2:37 PM 51.8 °F - 48.2 °F 88% 29.70 in 10.0 mi South 9.2 mph - N/A Rain Light Rain
2:45 PM 51.8 °F - 48.2 °F 88% 29.70 in 10.0 mi South 10.4 mph - N/A Rain Light Rain
2:55 PM 51.3 °F - 49.5 °F 94% 29.70 in 10.0 mi South 8.1 mph - 0.02 in Rain Light Rain
2:56 PM 51.8 °F - 50.0 °F 94% 29.70 in 10.0 mi South 8.1 mph - N/A Rain Light Rain
2:59 PM 51.8 °F - 50.0 °F 94% 29.70 in 10.0 mi South 8.1 mph - N/A Rain Light Rain
3:10 PM 51.8 °F - 50.0 °F 94% 29.70 in 10.0 mi South 10.4 mph - N/A Rain Light Rain
3:12 PM 51.8 °F - 48.2 °F 88% 29.70 in 10.0 mi South 9.2 mph - N/A Rain Light Rain
3:19 PM 51.8 °F - 50.0 °F 94% 29.70 in 10.0 mi South 9.2 mph - N/A Rain Light Rain
3:29 PM 51.8 °F - 48.2 °F 88% 29.70 in 10.0 mi South 6.9 mph - N/A Rain Light Rain
3:38 PM 51.8 °F - 48.2 °F 88% 29.70 in 10.0 mi South 8.1 mph - N/A Rain Light Rain
3:43 PM 51.8 °F - 48.2 °F 88% 29.70 in 10.0 mi South 9.2 mph - N/A Rain Light Rain
3:48 PM 51.8 °F - 48.2 °F 88% 29.70 in 10.0 mi South 10.4 mph - N/A Rain Light Rain
3:55 PM 50.5 °F - 47.8 °F 90% 29.70 in 10.0 mi South 10.4 mph - 0.01 in Rain Light Rain
4:02 PM 50.0 °F - 48.2 °F 94% 29.71 in 10.0 mi South 10.4 mph - N/A Rain Light Rain
4:06 PM 50.0 °F - 48.2 °F 94% 29.71 in 8.0 mi South 10.4 mph - N/A Rain Light Rain
4:18 PM 50.0 °F - 48.2 °F 94% 29.71 in 9.0 mi SSE 6.9 mph - N/A Rain Light Rain
4:20 PM 50.0 °F - 48.2 °F 94% 29.71 in 10.0 mi SSE 6.9 mph - N/A Rain Light Rain
4:33 PM 50.0 °F - 50.0 °F 100% 29.71 in 10.0 mi South 6.9 mph - N/A Rain Light Rain
4:46 PM 50.0 °F - 48.2 °F 94% 29.71 in 10.0 mi SSE 8.1 mph - N/A   Overcast
4:55 PM 51.1 °F - 48.7 °F 92% 29.71 in 10.0 mi South 9.2 mph - 0.02 in   Mostly Cloudy
5:11 PM 50.0 °F - 48.2 °F 94% 29.71 in 10.0 mi South 10.4 mph - N/A Rain Light Rain
5:50 PM 50.0 °F - 48.2 °F 94% 29.71 in 10.0 mi SSE 8.1 mph - N/A   Overcast
5:55 PM 50.4 °F - 48.4 °F 93% 29.72 in 10.0 mi SSE 8.1 mph - 0.01 in   Overcast
6:15 PM 50.0 °F - 48.2 °F 94% 29.71 in 10.0 mi SSE 8.1 mph - N/A Rain Light Rain
6:25 PM 50.0 °F - 48.2 °F 94% 29.71 in 10.0 mi SSE 8.1 mph - N/A   Mostly Cloudy
6:55 PM 49.6 °F - 47.1 °F 91% 29.71 in 10.0 mi SSE 8.1 mph - 0.00 in   Mostly Cloudy
7:55 PM 49.1 °F - 47.5 °F 94% 29.72 in 10.0 mi SSE 5.8 mph - N/A   Overcast
8:55 PM 47.1 °F - 46.9 °F 99% 29.73 in 10.0 mi South 5.8 mph - N/A   Mostly Cloudy
9:55 PM 47.3 °F - 46.6 °F 97% 29.73 in 10.0 mi South 8.1 mph - N/A   Overcast
10:55 PM 47.3 °F - 46.4 °F 97% 29.73 in 10.0 mi South 3.5 mph - N/A   Overcast
11:04 PM 48.2 °F - 46.4 °F 93% 29.73 in 10.0 mi SSW 5.8 mph - N/A   Overcast
11:21 PM 48.2 °F - 46.4 °F 93% 29.73 in 10.0 mi SSW 6.9 mph - N/A Rain Light Rain
11:51 PM 48.2 °F - 46.4 °F 93% 29.74 in 10.0 mi South 5.8 mph - N/A Rain Light Rain
11:52 PM 48.2 °F - 46.4 °F 93% 29.74 in 10.0 mi South 6.9 mph - N/A Rain Light Rain
11:55 PM 47.7 °F - 46.9 °F 97% 29.74 in 10.0 mi SSW 5.8 mph - 0.01 in Rain Light Rain